www.pogodaiklimat.ru

Погода и климат >> Архив погоды >> Франция >> Карпентрас


ПОГОДА в Карпентрасе

  • Прогноз погоды в Карпентрасе
  • Монитор погоды в Карпентрасе

АРХИВ ПОГОДЫ в Карпентрасе

Время (UTC), дата Ветер
(напр.,м/с)
 
Видим.   Явления Облачность Т
(С)
Тd
(С)
f
(%)
Тe
(С)
Тes
(С)
Комфортность P
(гПа)
Po
(гПа)
Тmin
(С)
Tmax
(С)
R
(мм)
R24
(мм)
S
(см)
13 15.09 З 2 н/о н/о +32.6 +13.8 32 +34 +34 очень
жарко
1022.2 1010.3
14 15.09 ЮЗ 2 н/о н/о +33.4 +14.0 31 +35 +35 душно 1021.5 1009.6
15 15.09 З 2
{5}
н/о н/о +32.2 +13.4 32 +33 +33 жарко 1021.0 1009.1
16 15.09 ЮЗ 2 н/о н/о +31.2 +14.4 36 +33 +33 жарко 1021.4 1009.4
17 15.09 ЮЗ 2 н/о н/о +28.5 +14.3 42 +31 +31 душно 1021.5 1009.4
18 15.09 штиль 0
{5}
н/о н/о +25.2 +14.3 51 +28 +28 жарко 1021.6 1009.4 +14.9 +33.5
19 15.09 штиль 0 н/о н/о +21.9 +14.8 64 +25 +25 комфорт 1021.9 1009.5
20 15.09 ЮВ 1 н/о н/о +19.8 +14.8 73 +23 +23 комфорт 1021.9 1009.4
21 15.09 В 1
{2}
н/о н/о +18.7 +14.6 77 +21 +21 комфорт 1021.9 1009.4
22 15.09 В 1 н/о н/о +18.6 +14.3 76 +21 +21 комфорт 1021.8 1009.3
23 15.09 ЮВ 1 н/о н/о +18.0 +13.9 77 +20 +20 1021.5 1009.0
00 16.09 ЮВ 1
{3}
н/о н/о +17.2 +13.7 80 +19 +19 1021.3 1008.7
01 16.09 В 1 н/о н/о +17.4 +13.5 78 +18 +18 1020.8 1008.3
02 16.09 В 1 н/о н/о +16.4 +13.3 82 +18 +18 1020.8 1008.2
03 16.09 ЮВ 1
{2}
н/о н/о +15.4 +13.1 86 +17 +17 1020.7 1008.1
04 16.09 ЮВ 1 н/о н/о +15.1 +13.0 87 +16 +16 1020.4 1007.8
05 16.09 В 1 н/о н/о +14.5 +12.5 88 +16 +16 1020.7 1008.0
06 16.09 В 1
{3}
н/о н/о +15.1 +13.1 88 +16 +16 1021.0 1008.3 +14.3 +25.1
07 16.09 ЮВ 1 н/о н/о +18.9 +14.6 76 +22 +22 комфорт 1020.9 1008.4
08 16.09 ЮЗ 1 н/о н/о +23.5 +14.5 57 +26 +26 жарко 1020.6 1008.3
09 16.09 З 1
{2}
н/о н/о +26.1 +14.5 49 +29 +29 жарко 1020.3 1008.1
10 16.09 З 1 н/о н/о +27.9 +15.2 46 +31 +31 душно 1019.6 1007.5
11 16.09 З 1 н/о н/о +30.8 +14.4 37 +33 +33 душно 1018.7 1006.7
12 16.09 З 2
{6}
н/о н/о +32.0 +13.7 33 +33 +33 жарко 1017.8 1005.9
13 16.09 З 2 н/о н/о +33.6 +13.1 29 +34 +34 очень
жарко
1017.0 1005.2
14 16.09 З 2 н/о н/о +34.1 +12.4 27 +34 +34 очень
жарко
1016.4 1004.6
15 16.09 ЮЗ 1
{5}
н/о н/о +34.9 +12.0 25 +35 +35 очень
жарко
1015.9 1004.1
16 16.09 ЮЗ 1 н/о н/о +33.9 +13.4 29 +35 +35 очень
жарко
1015.6 1003.8
17 16.09 ЮЗ 2 н/о н/о +29.5 +15.6 43 +32 +32 душно 1016.2 1004.2
18 16.09 Ю 1
{5}
н/о н/о +25.4 +13.9 49 +28 +28 жарко 1017.1 1004.9 +15.1 +35.1
19 16.09 В 1 н/о н/о +22.8 +14.1 58 +26 +26 жарко 1017.7 1005.4
20 16.09 В 1 н/о н/о +20.4 +14.3 68 +24 +24 комфорт 1018.1 1005.7
21 16.09 В 1
{2}
н/о н/о +19.6 +14.0 70 +23 +23 комфорт 1018.1 1005.7
22 16.09 ЮВ 1 н/о н/о +18.3 +14.0 76 +20 +20 1018.3 1005.8
23 16.09 ЮВ 1 н/о н/о +18.1 +13.6 75 +19 +19 1018.0 1005.5
00 17.09 В 1
{3}
н/о н/о +17.4 +13.5 78 +19 +19 1017.6 1005.1
01 17.09 В 1 н/о н/о +16.4 +13.1 81 +18 +18 1017.3 1004.8
02 17.09 В 1 н/о н/о +15.9 +13.0 83 +17 +17 1017.1 1004.5
03 17.09 ЮВ 1
{2}
н/о н/о +15.2 +12.5 84 +16 +16 1016.8 1004.2
04 17.09 В 1 н/о н/о +15.4 +12.3 82 +16 +16 1016.6 1004.0
05 17.09 В 1 н/о н/о +14.9 +12.0 83 +16 +16 1016.5 1003.9
06 17.09 ЮВ 1
{2}
н/о н/о +14.3 +12.2 87 +15 +15 1016.5 1003.9 +14.3 +25.3
07 17.09 штиль 0 н/о н/о +18.5 +13.4 72 +19 +19 1016.2 1003.8
08 17.09 ЮЗ 1 н/о н/о +22.0 +14.4 62 +25 +25 комфорт 1016.5 1004.2
09 17.09 Ю 1
{3}
н/о н/о +24.6 +14.1 52 +27 +27 жарко 1016.4 1004.2
10 17.09 СЗ 1 н/о н/о +26.9 +14.6 47 +29 +29 жарко 1015.9 1003.8
11 17.09 З 1 н/о н/о +30.0 +14.5 39 +32 +32 жарко 1015.1 1003.1
12 17.09 З 2
{5}
н/о н/о +33.6 +14.6 32 +35 +35 душно 1014.1 1002.3
13 17.09 СЗ 3 н/о н/о +34.8 +12.5 26 +35 +35 очень
жарко
1013.1 1001.3
14 17.09 СЗ 3 н/о н/о +35.3 +11.7 24 +35 +35 очень
жарко
1012.3 1000.6
15 17.09 СЗ 2
{8}
н/о н/о +35.0 +11.4 24 +35 +35 очень
жарко
1012.0 1000.3
16 17.09 СЗ 2 н/о н/о +33.7 +10.3 24 +33 +33 жарко 1011.9 1000.1
17 17.09 СЗ 1 н/о н/о +31.9 +11.1 28 +32 +32 жарко 1012.0 1000.1
18 17.09 З 1
{5}
н/о н/о +28.9 +11.5 34 +30 +30 жарко 1012.3 1000.3 +14.4 +35.5
19 17.09 Ю 1 н/о н/о +25.4 +15.7 55 +29 +29 душно 1013.1 1001.0
20 17.09 ЮВ 1 н/о н/о +23.5 +15.5 61 +27 +27 душно 1013.4 1001.2
21 17.09 ЮВ 1
{3}
н/о н/о +21.8 +15.4 67 +25 +25 комфорт 1013.5 1001.2
22 17.09 В 1 н/о н/о +20.3 +14.9 71 +24 +24 комфорт 1013.9 1001.6
23 17.09 ЮВ 1 н/о н/о +18.9 +14.4 75 +21 +21 комфорт 1014.1 1001.7
00 18.09 ЮВ 1
{2}
н/о н/о +17.8 +14.1 79 +19 +19 1014.4 1002.0
01 18.09 В 1 н/о н/о +18.3 +14.2 77 +20 +20 1014.4 1002.0
02 18.09 ЮВ 1 н/о н/о +18.4 +14.1 76 +21 +21 комфорт 1014.3 1001.9
03 18.09 В 1
{2}
н/о н/о +17.8 +14.1 79 +19 +19 1014.3 1001.9
04 18.09 штиль 0 н/о н/о +17.1 +13.6 80 +17 +17 1014.3 1001.8
05 18.09 В 1 н/о н/о +16.1 +13.2 83 +17 +17 1014.2 1001.7
06 18.09 В 1
{2}
н/о н/о +15.1 +13.0 87 +16 +16 1014.5 1001.9 +15.1 +28.8
07 18.09 ЮВ 1 н/о н/о +18.8 +13.4 71 +21 +21 комфорт 1014.6 1002.2
08 18.09 Ю 1 н/о н/о +22.7 +15.5 64 +27 +27 душно 1015.0 1002.8
09 18.09 Ю 1
{3}
н/о н/о +24.3 +15.2 57 +27 +27 жарко 1015.0 1002.8
10 18.09 Ю 1 н/о н/о +26.6 +14.0 46 +29 +29 жарко 1015.2 1003.1
11 18.09 З 1 н/о н/о +27.8 +12.6 39 +29 +29 жарко 1015.1 1003.0
12 18.09 З 1
{4}
н/о н/о +28.3 +12.2 37 +29 +29 жарко 1014.6 1002.6
13 18.09 ЮЗ 1 н/о н/о +30.5 +11.9 32 +31 +31 жарко 1014.2 1002.3
14 18.09 З 1 н/о н/о +31.5 +11.3 29 +32 +32 жарко 1013.5 1001.6
15 18.09 З 2
{8}
н/о н/о +31.0 +10.9 29 +31 +31 жарко 1012.9 1001.0
16 18.09 СЗ 3 н/о н/о +30.0 +10.5 30 +30 +30 жарко 1013.1 1001.1
17 18.09 З 1 н/о н/о +26.4 +11.7 40 +28 +28 жарко 1013.8 1001.7
18 18.09 С 1
{6}
н/о н/о +24.9 +10.7 41 +26 +26 жарко 1014.2 1002.0 +15.1 +31.7
19 18.09 Ю 1 н/о н/о +22.3 +11.4 50 +24 +24 комфорт 1015.2 1002.9
20 18.09 С 1 н/о н/о +20.6 +11.5 56 +24 +24 комфорт 1016.4 1004.0
21 18.09 З 1
{3}
н/о н/о +19.3 +11.6 61 +22 +22 комфорт 1016.9 1004.5
22 18.09 штиль 0 н/о н/о +17.8 +11.8 68 +18 +18 1016.9 1004.4
23 18.09 В 1 н/о н/о +16.9 +11.8 72 +18 +18 1016.4 1003.9
00 19.09 ЮВ 1
{3}
н/о н/о +16.1 +11.7 75 +17 +17 1016.1 1003.5
01 19.09 Ю 1 н/о н/о +15.0 +11.6 80 +16 +16 1016.2 1003.6
02 19.09 В 1 н/о н/о +15.5 +11.5 77 +17 +17 1016.3 1003.7
03 19.09 СЗ 1
{4}
н/о н/о +15.2 +11.0 76 +16 +16 1015.9 1003.3
04 19.09 В 1 н/о н/о +13.9 +11.1 83 +15 +15 1015.8 1003.2
05 19.09 В 1 н/о н/о +13.0 +10.7 86 +14 +14 1016.2 1003.5
06 19.09 Ю 1
{2}
н/о н/о +13.4 +11.3 87 +14 +14 1016.7 1004.0 +12.7 +24.8
07 19.09 штиль 0 н/о н/о +15.4 +11.4 77 +15 +15 1016.8 1004.2
08 19.09 штиль 0 н/о н/о +18.6 +10.9 61 +19 +19 1017.3 1004.8
09 19.09 СЗ 1
{3}
н/о н/о +20.3 +10.4 53 +23 +23 комфорт 1017.5 1005.1
10 19.09 З 1 н/о н/о +22.5 +10.3 46 +24 +24 комфорт 1017.5 1005.2
11 19.09 З 1 н/о н/о +25.0 +10.1 39 +26 +26 жарко 1016.9 1004.7
12 19.09 З 1
{5}
н/о н/о +27.0 +10.7 36 +28 +28 жарко 1016.3 1004.2
13 19.09 СЗ 3 н/о н/о +27.9 +10.6 34 +28 +28 жарко 1015.9 1003.8
14 19.09 СЗ 3 н/о н/о +28.3 +10.5 33 +29 +29 жарко 1015.5 1003.5
15 19.09 СЗ 2
{9}
н/о н/о +27.1 +9.9 34 +28 +28 жарко 1015.4 1003.3
16 19.09 СЗ 2 н/о н/о +27.5 +9.8 33 +28 +28 жарко 1015.6 1003.5
17 19.09 С 1 н/о н/о +26.2 +9.9 36 +27 +27 жарко 1016.0 1003.9
18 19.09 СЗ 1
{4}
н/о н/о +23.2 +9.2 41 +25 +25 комфорт 1016.6 1004.3 +13.4 +28.5
19 19.09 Ю 1 н/о н/о +19.9 +9.7 52 +23 +23 комфорт 1017.6 1005.2
20 19.09 Ю 1 н/о н/о +18.4 +10.0 58 +20 +20 1018.3 1005.8
21 19.09 ЮВ 1
{3}
н/о н/о +18.4 +9.7 57 +20 +20 1019.2 1006.7
22 19.09 В 1 н/о н/о +16.8 +10.2 65 +18 +18 1019.9 1007.3
23 19.09 В 1 н/о н/о +16.1 +10.4 69 +18 +18 1020.2 1007.6
00 20.09 ЮВ 1
{3}
н/о н/о +15.4 +10.8 74 +17 +17 1020.3 1007.7
01 20.09 штиль 0 н/о н/о +15.5 +10.7 73 +15 +15 1020.4 1007.8
02 20.09 штиль 0 н/о н/о +14.6 +10.6 77 +14 +14 1020.6 1007.9
03 20.09 В 1
{2}
н/о н/о +14.0 +10.6 80 +15 +15 1020.5 1007.8
04 20.09 ЮВ 1 н/о н/о +13.2 +10.7 85 +14 +14 1020.5 1007.8
05 20.09 ЮВ 1 н/о н/о +14.1 +10.9 81 +15 +15 1020.7 1008.0
06 20.09 штиль 0
{1}
н/о н/о +14.5 +11.5 82 +14 +14 1021.0 1008.3 +13.1 +23.1
07 20.09 штиль 0 н/о н/о +17.7 +11.7 68 +18 +18 1021.3 1008.8
08 20.09 СЗ 1 н/о н/о +19.2 +11.5 61 +21 +21 комфорт 1021.9 1009.4
09 20.09 З 1
{3}
н/о н/о +20.1 +10.5 54 +23 +23 комфорт 1022.1 1009.6
10 20.09 З 1 н/о н/о +21.9 +10.4 48 +24 +24 комфорт 1021.7 1009.3
11 20.09 З 1 н/о н/о +25.1 +12.7 46 +27 +27 жарко 1021.1 1008.9
12 20.09 СЗ 2
{5}
н/о н/о +27.6 +14.9 46 +30 +30 жарко 1020.5 1008.4
13 20.09 З 1 н/о н/о +28.9 +14.7 42 +31 +31 жарко 1020.0 1007.9
14 20.09 ЮЗ 1 н/о н/о +28.3 +14.2 42 +30 +30 жарко 1019.2 1007.1
15 20.09 З 1
{5}
н/о н/о +28.4 +14.6 43 +31 +31 душно 1018.5 1006.4
16 20.09 З 2 н/о н/о +28.2 +14.4 43 +30 +30 жарко 1018.3 1006.2
17 20.09 ЮЗ 2 н/о н/о +25.8 +16.1 55 +29 +29 душно 1018.8 1006.6
18 20.09 ЮЗ 1
{6}
н/о н/о +23.4 +16.4 65 +28 +28 душно 1019.1 1006.8 +14.6 +29.8
19 20.09 штиль 0 н/о н/о +22.1 +16.6 71 +26 +26 душно 1019.6 1007.3
20 20.09 ЮЗ 1 н/о н/о +21.3 +15.2 68 +24 +24 комфорт 1019.9 1007.5
21 20.09 ЮВ 1
{2}
н/о н/о +19.4 +14.0 71 +22 +22 комфорт 1020.4 1007.9
22 20.09 В 1 н/о н/о +20.1 +9.9 52 +23 +23 комфорт 1020.1 1007.7
23 20.09 СЗ 1 н/о н/о +18.0 +10.4 61 +20 +20 1020.1 1007.6
00 21.09 штиль 0
{2}
н/о н/о +15.6 +11.0 74 +15 +15 1020.2 1007.6
01 21.09 штиль 0 н/о н/о +15.2 +11.2 77 +15 +15 1020.0 1007.4
02 21.09 СВ 1 н/о н/о +14.1 +10.7 80 +15 +15 1020.1 1007.4
03 21.09 В 1
{2}
н/о н/о +14.1 +10.9 81 +15 +15 1019.8 1007.1
04 21.09 В 1 н/о н/о +15.3 +10.7 74 +17 +17 1019.4 1006.8
05 21.09 штиль 0 н/о н/о +15.6 +10.8 73 +15 +15 1019.0 1006.4
06 21.09 ЮВ 1
{3}
н/о н/о +16.8 +10.4 66 +18 +18 1018.9 1006.3 +13.7 +23.4
07 21.09 ЮВ 2 н/о н/о +22.1 +9.3 44 +24 +24 комфорт 1018.5 1006.2
08 21.09 ЮВ 2 н/о н/о +24.0 +9.6 40 +25 +25 комфорт 1018.1 1005.8
09 21.09 ЮВ 2
{10}
н/о н/о +24.4 +9.5 39 +25 +25 комфорт 1018.2 1006.0
10 21.09 ЮВ 2 н/о н/о +24.9 +10.4 40 +26 +26 жарко 1018.2 1006.0
11 21.09 ЮВ 3 н/о н/о +23.3 +11.4 47 +26 +26 жарко 1018.0 1005.7
12 21.09 В 3
{12}
н/о н/о +23.8 +11.8 47 +25 +25 комфорт 1016.9 1004.7
13 21.09 В 2 н/о н/о +23.4 +13.3 53 +27 +27 душно 1016.2 1004.0
14 21.09 ЮВ 2 н/о н/о +22.6 +13.4 56 +26 +26 жарко 1016.5 1004.2
15 21.09 В 2
{11}
н/о н/о +20.4 +15.6 74 +24 +24 комфорт 1015.3 1003.0
16 21.09 ЮВ 2 н/о н/о +20.8 +14.7 68 +24 +24 комфорт 1014.9 1002.6
17 21.09 В 2 н/о н/о +20.4 +14.5 69 +24 +24 комфорт 1014.4 1002.1
18 21.09 В 2
{10}
н/о н/о +20.8 +14.4 67 +24 +24 комфорт 1014.0 1001.7 +16.9 +25.2 0.4
19 21.09 В 2 н/о н/о +21.3 +13.7 62 +24 +24 комфорт 1012.7 1000.4
20 21.09 Ю 1 н/о н/о +20.8 +13.7 64 +25 +25 комфорт 1013.8 1001.5
21 21.09 штиль 0
{3}
н/о н/о +20.2 +14.3 69 +22 +22 комфорт 1013.9 1001.6
22 21.09 С 1 н/о н/о +21.7 +14.1 62 +25 +25 комфорт 1013.6 1001.3
23 21.09 СВ 1 н/о н/о +20.3 +14.6 70 +24 +24 комфорт 1013.5 1001.2
00 22.09 ЮВ 2
{9}
н/о н/о +21.8 +13.9 61 +25 +25 комфорт 1013.6 1001.3
01 22.09 ЮВ 2 н/о н/о +21.2 +13.9 63 +24 +24 комфорт 1013.6 1001.3
02 22.09 Ю 1 н/о н/о +20.7 +13.9 65 +25 +25 комфорт 1013.2 1000.9
03 22.09 З 1
{3}
н/о н/о +19.1 +14.6 75 +21 +21 комфорт 1013.1 1000.7
04 22.09 З 1 н/о н/о +18.4 +15.3 82 +21 +21 комфорт 1012.9 1000.5
05 22.09 ЮВ 1 н/о н/о +17.5 +15.8 90 +19 +19 1012.6 1000.2
06 22.09 штиль 0
{2}
н/о н/о +17.6 +16.3 92 +18 +18 1012.9 1000.5 +17.5 +22.4 0.2
07 22.09 штиль 0 н/о н/о +18.0 +16.7 92 +18 +18 1013.1 1000.7
08 22.09 З 1 н/о н/о +18.5 +16.7 89 +21 +21 комфорт 1013.4 1001.0
09 22.09 штиль 0
{2}
н/о н/о +19.8 +16.4 81 +22 +22 комфорт 1013.1 1000.8
10 22.09 З 2 н/о н/о +21.6 +17.2 76 +26 +26 душно 1013.1 1000.8
11 22.09 З 1 н/о н/о +21.8 +16.7 73 +26 +26 душно 1012.8 1000.6
12 22.09 ЮВ 2
{7}
н/о н/о +24.8 +16.2 59 +28 +28 жарко 1012.3 1000.2
13 22.09 ЮВ 2 н/о н/о +25.5 +16.1 56 +29 +29 душно 1011.8 999.7

 

Местоположение метеостанции Карпентрас (Франция): широта 44.08 долгота 5.05 высота над уровнем моря 105 м.

В архиве по умолчанию представлена погода в Карпентрасе за последнюю неделю. Архивные данные за месяц целиком и за предыдущие месяцы, начиная с января 2011 года, Вы можете получить, выбрав интересующий диапазон дат из раскрывающегося списка и нажав кнопку "Ввод!".


*Определитесь, кто Вы:
робот инопланетянин человек

Внимание! Время в таблицах - всемирное. Для получения местного времени необходимо прибавить поправку, которая равна 1 ч.

Смотрите также архив погоды в соседних городах и на ближайших метеорологических станциях:

Погода в Оранже (Франция) (18 км)
Погода в Авиньон (Франция) (22 км)
Погода в Салон-де-Провансе (Франция) (54 км)
Погода в Ним аэропорту (Франция) (57 км)
Погода в Монтелимаре (Франция) (61 км)
Погода в Ниме (Франция) (62 км)
Погода в Истре (Франция) (63 км)
Погода в Мариньяне (Франция) (72 км)
Погода в Обене (Франция) (74 км)
Погода в Шато-Арну-Сент-Обане (Франция) (76 км)

Пояснения к столбцам:

Ветер - указаны скорость ветра в м/с - средняя за 10 мин, порывы в срок и между сроками (в фигурных скобках) и направление, откуда дует ветер: С - северный, СВ - северо-восточный, В - восточный, ЮВ - юго-восточный, Ю - южный, ЮЗ - юго-западный, З - западный, СЗ - северо-западный.
Видимость - горизонтальная дальность видимости в метрах или километрах. При видимости от 1 до 10 км при отсутствии осадков обычно наблюдается дымка, при ухудшении видимости до 1 км и менее - туман. В сухую погоду видимость может ухудшаться дымом, пылью или мглою.
Явления - указаны атмосферные явления, наблюдавшиеся в срок или в последний час перед сроком; фигурными скобками обозначены явления, наблюдавшиеся между сроками (за 1-3 часа до срока); квадратными скобками обозначены град или гололедные отложения с указанием их диаметра в мм.
Облачность - указаны через наклонную черту общая и нижняя облачность в баллах и высота нижней границы облаков в метрах; квадратными скобками обозначены формы облаков: Ci - перистые, Cs - перисто-слоистые, Cc - перисто-кучевые, Ac - высококучевые, As - высокослоистые, Sc - слоисто-кучевые, Ns - слоисто-дождевые, Cu - кучевые, Cb - кучево-дождевые. Подробнее классификацию облаков см. в Атласе облаков (PDF).
T - Температура воздуха - температура, измеренная на высоте 2 м над землей.
Td - Температура точки росы - температура, при понижении до которой содержащийся в воздухе водяной пар достигнет насыщения.
f - Относительная влажность воздуха - влажноcть воздуха, измеренная на высоте 2 м над землей.
Te - Эффективная температура - температура, которую ощущает одетый по сезону человек в тени. Характеристика душности погоды. При расчете учитывается влияние влажности воздуха и скорости ветра на теплоощущения человека.
Tes - Эффективная температура на солнце - температура, которую ощущает человек, с поправкой на солнечный нагрев. Характеристика знойности погоды. Зависит от высоты солнца над горизонтом, облачности и скорости ветра. Ночью, в пасмурную погоду, а также при ветре 12 м/с и более поправка равна нулю.
P - Атмосферное давление - приведенное к уровню моря атмосферное давление.
Po - Атмосферное давление - измеренное на уровне метеостанции атмосферное давление.
Tmin - Минимальная температура - минимум температуры воздуха на высоте 2 м над землей.
Tmax - Максимальная температура - максимум температуры воздуха на высоте 2 м над землей.
R - Количество осадков - Количество выпавших осадков за период времени, мм. При наведении курсора мыши на число - период времени, за который выпало указанное количество осадков.
R24 - Количество осадков - Количество выпавших осадков за 24 часа, мм.
S - Снежный покров - Высота снежного покрова, см. При наведении курсора мыши на число - состояние снежного покрова и степень покрытия местности в баллах.